DELTA 1 DEB

Satellite information

Favourite Embed

Satellite Type and Status

DEBRISIN ORBIT

Key statistics

Satellite DELTA 1 DEB at a glance.

Uptime

18934

Days in orbit

Revolutions

≈ 12.6

Per day

Orbit

SSO

Sun Synchronous Orbit

Inclination

102.0

Latest

Satellite identification and parameters

Extended collection of information and parameters for DELTA 1 DEB.

Object identification

Identified? True

Debris? True

Object name: DELTA 1 DEB

International designator: 1973-086EF

Object number (NORAD): 7167

Object ID (CCSDS): 7167

Country: UNITED STATES OF AMERICA (US)

Current information (Y/N): Y

RCS size: SMALL

Orbital parameters

Period: 114.739 minutes

Inclination: 101.9566 deg

SMA: 7821.676 km

Apoapsis: 1474.162 km

Periapsis: 1412.92 km

RAAN: 42.6516 deg

Eccentricy: 0.00391487

Argument of periapsis: 336.9943 deg

Mean anomaly: 141.488 deg

Mean motion: 12.55026958 rev/day

Mean motion (dot): 0.00000381 rev/day2

B* drag term: 0.002624202 1/REarth

Two-line elements (TLE)

Creation date: Sept. 8, 2025, 3:16 a.m.

Reference frame: TEME

Reference center: EARTH

Epoch: Sept. 7, 2025, 11:19 p.m. UTC

TLE line 0: 0 DELTA 1 DEB

TLE line 1: 1 07167U 73086EF 25250.97211988 .00000381 00000-0 26242-2 0 9994

TLE line 2: 2 07167 101.9566 42.6516 0039149 336.9943 141.4880 12.55026958358485

Live tracking on map

Real-time ground track for satellite DELTA 1 DEB.

In-orbit conjunctions

A list of the most updated potential collisions computed for object DELTA 1 DEB.

Target Orbit TCA Probability of collision Miss distance Type
COSMOS 2384 LEO 2024-11-11 10:34:07 0.0008295364 317.0 (m) PAYLOAD
COSMOS 341 LEO 2024-05-29 04:31:47 0.0001451162 837.0 (m) PAYLOAD

Associated space launch

Meteorological satellite using radiometric imaging

DELTA 1 DEB was lifted into orbit during the mission ‘Delta 0300 | NOAA 3’, on board a Delta 0300 space rocket.

The launch took place on Nov. 6, 1973, 5:02 p.m. from Space Launch Complex 2W.

For more information about the launch, click the button.

Launch to space Delta 0300 | NOAA 3
Delta 0300 | NOAA 3

Agency: N/A

Status: Launch Successful

Launch date: Nov. 6, 1973, 5:02 p.m. UTC

Rocket: Delta 0300

Launch pad: Space Launch Complex 2W

Location: Vandenberg SFB, CA, USA

...

Latest news about this satellite

There are no fresh news available about this satellite. Check back as we update our databases every day.


Newsletter sign-up

Weekly statistics, charts and insights to help you stay on top of the space industry.